CAPE
626 734 675 632 685 574 730 804 648 574 503 518 570 446 277 286 745 290 349 420 263 251 168 392 617 608 644 460 431 646 174 394 475 629 366 294 369 408 383 116 4 140 274
662 697 540 555 698 669 681 552 513 414 619 482 442 386 467 715 400 484 630 473 404 345 245 222 516 597 706 406 374 395 460 336 619 856 600 364 384 709 608 517 398 199 148
605 779 729 496 753 732 780 586 560 599 535 399 417 431 601 546 290 341 557 584 714 535 426 163 248 363 396 471 281 288 263 363 426 769 814 733 570 442 364 510 378 403 362
626 619 542 626 659 717 673 505 501 612 361 524 519 540 607 361 416 479 569 595 702 522 696 323 283 299 231 302 312 271 267 252 255 433 570 753 702 532 436 349 303 259 189
820 568 421 576 250 486 504 430 525 520 537 274 425 382 546 548 453 362 370 480 618 611 510 411 319 283 198 229 267 455 428 341 262 280 363 489 378 397 315 216 81 53 9
386 854 499 480 219 219 379 423 295 436 382 170 358 327 321 179 194 405 280 313 471 621 536 491 385 310 191 100 103 48 281 435 332 206 251 378 429 383 372 234 96 14 0
400 320 152 288 272 125 41 112 238 199 339 359 167 123 116 280 96 128 234 233 184 344 183 72 192 126 159 76 13 61 13 332 457 181 243 205 262 218 211 204 132 61 13
335 281 178 117 115 66 12 0 5 115 175 134 54 40 36 12 90 184 169 153 213 380 204 57 504 470 308 359 188 169 79 184 491 225 105 198 198 249 217 185 205 94 40
406 189 138 98 53 141 72 54 2 5 0 18 76 48 18 0 6 39 16 8 107 194 224 205 342 462 490 393 513 527 199 210 582 270 257 197 187 228 226 176 112 88 42
340 175 170 103 220 179 122 55 25 17 21 4 23 44 43 14 0 0 16 0 46 25 24 59 101 132 156 261 312 359 355 237 298 335 352 346 200 181 88 60 45 16 16
397 299 203 142 182 228 108 41 39 18 24 15 4 6 33 76 27 0 0 0 0 2 2 1 18 63 157 182 51 89 84 113 209 247 216 163 160 151 75 41 21 27 22
425 446 85 107 177 172 65 74 59 24 63 102 112 97 65 66 24 3 1 9 17 3 0 2 0 50 55 38 45 79 131 157 167 162 170 148 171 121 67 69 56 71 82
237 207 119 0 0 0 0 1 11 48 23 0 0 56 64 42 33 5 8 36 118 17 2 0 0 8 26 1 4 8 16 30 41 42 52 55 60 75 95 82 107 143 143
292 510 280 1 40 0 0 35 44 18 23 71 46 69 45 20 57 18 38 93 92 10 2 0 1 1 0 0 3 0 0 0 1 2 12 2 0 0 0 23 100 91 98
359 457 351 470 400 456 575 142 74 88 63 37 38 54 55 66 127 126 96 53 44 8 3 1 0 2 4 6 0 0 0 0 0 0 0 0 0 0 0 10 48 46 26
775 580 539 539 351 247 433 277 166 58 0 0 7 0 0 84 95 197 231 115 106 36 25 1 1 1 2 7 0 0 0 0 0 0 0 0 0 0 0 3 3 1 0
542 422 297 385 409 230 180 57 90 102 141 113 168 203 199 244 193 153 221 174 200 155 29 3 0 1 0 1 1 0 0 0 0 0 0 0 0 0 0 0 0 0 0
747 490 308 245 277 339 216 200 45 127 121 127 129 137 110 193 158 144 163 173 178 144 10 1 1 0 0 1 0 0 0 0 0 0 0 0 0 0 0 0 0 0 0
619 605 440 294 83 97 147 157 7 2 24 77 100 43 1 132 265 220 242 178 144 81 8 0 1 1 0 1 0 1 0 0 0 1 0 0 0 0 0 0 0 0 0
787 675 472 345 146 95 91 100 61 0 0 34 56 4 20 135 107 139 177 242 98 30 0 2 2 1 0 0 0 0 1 0 0 0 0 0 0 0 0 0 0 0 0
880 640 411 309 142 62 22 71 24 0 0 5 17 26 42 2 0 0 93 222 141 14 0 1 1 1 0 0 1 0 0 0 0 0 0 0 0 0 0 0 0 0 0
778 709 494 360 247 31 0 0 0 0 6 30 1 23 2 0 0 0 95 225 112 0 0 0 1 1 1 1 0 0 0 0 0 0 0 0 0 0 0 0 0 0 0
793 692 599 409 319 134 0 0 0 0 0 7 23 3 2 33 0 0 10 109 141 37 0 0 0 0 0 0 0 0 0 0 0 0 0 0 0 0 0 0 0 0 0
854 860 819 756 552 140 11 0 0 0 0 0 0 2 3 3 51 4 0 0 8 55 78 17 0 0 0 0 0 0 0 0 1 0 0 0 0 0 0 0 0 0 0
1029 1145 1010 906 606 190 16 1 0 0 0 0 1 1 7 2 0 0 35 1 0 0 0 8 26 4 0 0 0 0 0 0 0 0 0 0 0 0 0 0 0 0 0
1120 1049 874 756 625 295 50 2 0 0 0 0 0 0 0 0 0 0 0 26 28 10 0 0 0 0 0 0 0 0 0 0 0 0 0 0 0 0 0 0 0 0 0
CIN
-14 -14 -21 -37 -42 -44 -28 -22 -33 -33 -36 -25 -18 -15 -40 -39 -14 -39 -43 -40 -39 -48 -39 -35 -66 -72 -61 -63 -58 -31 -97 -41 -25 -3 -15 -3 -3 -2 -2 -38 -35 -15 -4
-27 -20 -23 -31 -35 -45 -30 -31 -21 -22 -21 -16 -13 -23 -33 -21 -18 -24 -29 -29 -32 -38 -36 -44 -36 -41 -42 -42 -48 -49 -41 -53 -20 -1 -7 -13 -9 -1 -2 -3 -1 -10 -9
-22 -21 -20 -23 -27 -32 -23 -26 -25 -21 -23 -33 -28 -24 -24 -20 -13 -17 -24 -41 -39 -37 -48 -50 -49 -39 -32 -22 -31 -27 -30 -29 -29 -5 -2 -2 -6 -3 -2 -1 -2 -1 -1
-38 -29 -25 -25 -17 -25 -16 -19 -23 -22 -30 -23 -25 -29 -27 -20 -19 -19 -19 -29 -34 -35 -39 -44 -52 -48 -57 -65 -55 -49 -29 -28 -32 -19 -9 -5 -4 -6 -6 -7 -6 -7 -11
-28 -40 -36 -37 -59 -25 -27 -14 -23 -26 -26 -33 -27 -23 -29 -23 -27 -19 -17 -17 -28 -35 -36 -43 -36 -50 -78 -64 -51 -42 -46 -29 -23 -21 -23 -18 -23 -17 -17 -14 -29 -32 -68
-19 -27 -31 -29 -60 -49 -29 -27 -23 -17 -23 -31 -24 -38 -25 -30 -24 -27 -31 -20 -32 -29 -49 -32 -53 -39 -46 -76 -92 -115 -70 -114 -21 -17 -25 -26 -24 -26 -17 -15 -35 -76 0
-21 -26 -38 -36 -39 -71 -75 -61 -45 -40 -30 -37 -45 -44 -51 -25 -42 -29 -35 -34 -42 -34 -53 -70 -46 -55 -43 -109 -140 -138 -147 -74 -37 -21 -26 -27 -30 -34 -28 -26 -19 -35 -69
-12 -20 -29 -37 -54 -59 -56 0 -58 -33 -23 -29 -23 -34 -26 -35 -46 -32 -50 -48 -38 -32 -55 -75 -20 -18 -42 -61 -106 -127 -124 -82 -34 -22 -31 -25 -35 -23 -25 -19 -10 -12 -14
-15 -16 -27 -21 -32 -44 -48 -62 -38 -64 0 -40 -19 -14 -23 0 -44 -72 -99 -36 -47 -15 -15 -39 -33 -22 -20 -33 -32 -46 -88 -76 -29 -26 -22 -22 -22 -18 -28 -23 -20 -11 -13
-19 -24 -19 -23 -38 -30 -38 -55 -66 -54 -39 -50 -40 -19 -20 -19 0 -3 -88 0 -54 -65 -54 -56 -53 -37 -26 -19 -27 -31 -39 -53 -39 -20 -22 -17 -19 -25 -43 -44 -40 -23 -36
-27 -21 -28 -23 -10 -12 -37 -49 -40 -49 -38 -54 -72 -43 -19 -9 -30 0 0 -1 -5 -91 -141 -104 -92 -45 -36 -36 -72 -60 -64 -51 -44 -51 -29 -23 -28 -32 -39 -51 -72 -48 -36
-33 -18 -61 -44 -35 -35 -49 -33 -27 -31 -23 -22 -12 -12 -15 -15 -26 -60 -66 -56 -76 -34 0 -135 0 -25 -19 -51 -60 -64 -31 -23 -26 -29 -32 -27 -21 -19 -24 -23 -34 -17 -3
-28 -50 -67 0 0 0 0 -45 -55 -29 -38 0 0 -27 -23 -31 -36 -43 -56 -30 -2 -87 0 0 0 -5 -9 -30 -9 -75 -56 -64 -49 -31 -20 -25 -9 -8 -10 -25 -9 -23 -34
-57 -32 -46 -62 -74 0 0 -67 -51 -38 -36 -19 -22 -20 -23 -37 -38 -43 -40 -16 -7 -72 0 0 0 -2 0 0 0 0 0 0 -11 -42 -68 -77 0 0 -1 -18 -28 -2 0
-69 -29 -28 -26 -27 -27 -11 -34 -46 -32 -38 -44 -52 -38 -24 -30 -16 -18 -28 -31 -13 -51 -92 0 0 0 0 0 -1 0 0 -4 0 0 0 0 0 0 0 -25 -8 -3 -2
-68 -64 -42 -21 -27 -26 -15 -21 -28 -12 0 0 -33 0 -17 -17 -35 -13 -14 -30 -25 -24 -68 0 0 0 0 0 0 0 0 0 0 0 0 0 0 0 0 -17 -20 -15 -1
-96 -86 -97 -62 -42 -26 -19 -29 -32 -18 -22 -20 -15 -14 -19 -10 -11 -19 -13 -17 -13 -4 -75 0 0 0 0 0 0 0 0 0 0 0 0 0 0 0 0 0 0 0 0
-51 -64 -69 -66 -43 -25 -30 -24 -22 -11 -17 -11 -11 -14 -14 -13 -26 -22 -21 -19 -22 -24 -101 -18 0 0 0 0 0 0 0 0 0 0 0 0 0 0 0 0 0 0 0
-64 -40 -31 -34 -75 -61 -28 -16 -17 -1 -8 -6 -8 -7 -2 -11 -25 -11 -13 -25 -56 -67 -149 0 0 0 0 0 0 -1 0 0 0 0 0 -1 0 0 0 0 0 0 0
-32 -21 -32 -38 -49 -50 -21 -44 -45 0 0 -15 -10 -5 -7 -14 -21 -21 -17 -46 -77 -114 0 -61 0 0 0 0 -1 0 0 0 0 0 0 0 0 0 0 0 0 0 0
-10 -17 -29 -38 -33 -61 -83 -57 -27 0 0 -23 -15 -22 -22 -2 0 0 -28 -9 -40 -59 0 0 0 0 0 0 0 0 0 0 0 0 0 0 0 0 0 0 0 0 0
-15 -14 -35 -34 -39 -112 0 0 0 0 -23 -21 -1 -20 -22 0 0 0 -32 -8 -16 -1 0 0 0 0 0 0 0 0 0 0 0 0 0 0 0 0 0 0 0 0 0
-37 -18 -17 -28 -29 -55 0 0 0 0 0 -26 -17 -13 -52 -35 0 0 -21 -15 -11 -30 -4 0 0 0 0 0 0 0 0 0 0 0 0 0 0 0 0 0 0 0 0
-48 -30 -14 -15 -18 -79 -129 0 0 0 0 -15 -4 -25 -22 -67 -30 -15 0 0 -17 -25 -19 -42 0 0 0 0 0 0 0 0 -41 0 0 0 0 0 0 0 0 0 0
-14 -10 -13 -12 -30 -87 -166 -61 0 0 0 0 -24 -107 -60 -18 0 0 -28 -11 0 0 -2 -18 -55 -37 0 0 0 0 0 0 0 0 0 0 0 0 0 0 0 0 0
-19 -15 -26 -10 -20 -57 -165 -110 0 0 0 0 0 0 0 0 0 0 0 -47 -43 -47 0 0 0 0 0 0 0 0 0 0 0 0 0 0 0 0 0 0 0 0 0
Wind_Speed
21 8 9 7 2 16 23 1 5 8 20 27 12 14 22 24 22 7 4 5 5 5 6 6 6 6 5 4 4 4 4 5 6 6 11 9 7 8 8 9 10 11 12
10 10 16 15 12 3 10 9 11 15 20 20 18 19 20 22 19 10 6 5 2 4 3 3 3 3 3 2 3 3 3 3 5 10 5 7 5 6 8 8 8 11 13
5 2 16 15 12 2 5 9 9 14 15 19 20 19 20 21 20 18 14 10 5 2 1 2 4 3 2 3 3 2 2 4 4 7 6 1 4 5 4 5 5 6 11
7 5 17 20 25 20 5 5 11 9 13 18 20 21 20 16 17 17 15 8 7 6 4 5 4 4 6 8 8 7 1 4 6 9 7 4 3 0 4 4 3 5 9
8 16 21 18 19 27 16 11 11 7 14 21 20 21 17 16 17 19 17 15 15 11 9 7 3 4 6 12 18 26 16 11 10 8 9 6 3 3 2 1 3 3 6
10 18 17 11 3 23 18 17 16 19 21 22 21 24 22 19 19 20 20 19 19 16 18 19 22 6 7 12 11 11 30 22 15 9 11 9 5 5 3 4 3 2 2
9 25 25 18 15 20 19 19 21 23 25 19 23 25 24 21 21 20 23 26 20 20 21 22 12 12 13 8 24 23 26 18 17 13 14 11 5 5 6 6 2 1 1
3 5 23 28 29 27 24 22 20 23 26 20 23 22 25 24 24 22 25 24 22 21 19 12 14 12 7 4 5 15 19 16 19 11 12 8 5 2 1 3 4 3 7
6 6 8 21 29 26 23 22 22 23 27 25 22 18 19 22 22 21 22 22 21 18 17 18 18 16 15 13 5 2 11 16 12 8 11 7 2 0 6 8 6 3 3
14 8 10 6 22 21 21 21 22 20 22 26 25 21 20 19 20 22 20 20 19 18 19 22 21 21 20 17 16 12 10 11 6 1 5 3 3 4 8 9 10 10 9
14 13 9 8 9 19 20 21 20 25 28 27 28 27 27 21 17 19 19 19 18 19 20 21 23 22 19 16 16 15 13 10 10 8 6 5 6 7 8 9 10 10 10
13 12 12 10 8 5 2 17 20 22 21 22 24 20 15 14 14 15 16 14 8 16 18 19 21 20 18 16 15 14 13 11 10 9 9 8 8 8 8 9 10 10 9
14 16 14 12 11 9 9 11 12 16 19 18 19 18 17 17 15 13 16 15 12 14 16 17 19 17 14 14 14 13 12 11 10 9 9 9 9 9 9 9 10 11 10
14 14 13 12 10 9 9 11 13 18 15 19 18 14 20 18 16 14 11 12 13 13 16 15 16 15 12 13 13 13 12 11 11 10 9 9 10 10 10 10 10 10 10
16 15 13 12 11 10 10 9 11 14 14 15 16 18 19 19 21 16 18 12 8 11 13 12 14 13 11 11 12 12 11 10 10 10 9 9 10 10 10 10 11 11 10
15 14 13 12 11 12 11 10 11 11 13 15 15 16 18 20 18 21 18 15 11 10 12 14 14 13 11 10 10 10 10 10 10 10 10 9 10 10 10 10 10 10 8
15 14 13 14 13 13 12 11 11 11 8 10 12 14 17 16 20 22 20 19 15 10 10 13 10 14 10 7 9 9 9 9 10 9 9 9 9 9 9 8 8 7 7
14 14 13 14 14 12 11 10 11 13 8 11 10 12 19 18 19 19 20 21 16 11 11 9 13 15 12 7 7 8 8 9 9 9 9 8 9 9 8 8 7 7 7
12 13 13 13 12 12 12 10 11 11 14 15 13 14 18 20 19 20 21 22 17 11 8 7 9 16 14 9 6 7 6 8 9 8 8 7 7 8 8 7 7 7 6
10 10 11 12 12 12 12 11 10 11 10 11 12 14 15 15 17 18 20 18 11 11 9 4 6 9 16 9 7 5 6 7 8 7 7 7 7 7 7 7 7 6 6
9 10 10 11 11 12 13 12 10 11 10 9 12 12 12 13 16 16 16 12 9 9 9 9 6 14 14 7 6 6 6 6 8 6 5 5 7 8 8 7 7 6 5
9 9 9 9 10 12 13 13 11 12 13 13 10 8 9 12 14 14 15 11 7 8 10 11 8 4 7 8 6 6 7 9 11 5 5 5 6 6 5 5 4 5 4
4 5 5 7 8 10 11 12 12 11 11 11 12 10 9 9 11 13 12 13 13 12 10 9 9 9 9 7 7 8 7 9 11 8 5 8 6 8 5 4 2 2 3
3 3 2 5 7 8 10 11 12 12 11 10 11 12 10 9 10 10 10 10 11 12 10 11 11 11 10 7 5 8 10 11 13 11 5 10 7 8 7 5 2 1 0
2 1 3 3 5 7 9 10 10 11 11 10 10 11 11 11 10 9 11 9 11 12 11 12 13 12 9 8 6 8 10 11 14 13 10 12 14 10 8 7 5 5 3
5 2 1 4 5 7 8 9 9 10 10 11 11 9 10 10 10 13 10 8 8 11 9 10 11 13 9 8 5 5 8 9 12 16 13 13 16 15 16 12 5 6 6
Wind_Direction
172 132 130 118 73 264 245 6 316 305 258 237 289 298 271 260 278 333 38 72 60 83 69 64 83 77 65 58 47 43 48 61 15 354 323 343 18 2 20 14 9 1 355
147 144 159 157 149 122 281 289 286 280 270 272 279 284 276 278 292 330 340 2 86 35 70 63 52 53 60 98 76 103 95 96 120 151 133 344 9 15 355 350 8 358 338
160 189 166 163 153 145 293 289 293 288 286 281 274 284 285 286 291 299 316 330 337 353 47 344 351 18 32 28 8 17 133 148 142 160 161 80 351 358 27 5 18 16 352
282 264 277 279 265 271 286 305 292 300 300 286 280 280 285 302 305 305 315 330 331 322 309 311 316 336 339 335 333 328 264 194 184 183 178 176 168 213 345 347 15 10 0
289 282 274 283 279 256 273 287 293 306 302 286 285 283 296 303 303 307 314 317 318 318 317 307 268 301 319 322 317 295 310 202 200 193 188 181 176 181 183 323 348 11 8
290 283 280 280 230 260 275 279 288 286 286 283 283 283 288 298 302 305 307 314 316 323 309 309 303 313 314 315 329 323 226 213 204 200 193 185 179 179 189 185 160 151 102
290 279 274 275 272 272 275 278 281 280 278 292 288 286 288 300 301 306 303 304 312 312 309 299 319 323 319 335 314 236 218 202 205 203 197 191 183 184 183 186 185 152 49
177 252 269 267 264 267 271 277 285 284 281 289 287 294 289 293 297 302 308 312 315 313 318 322 319 325 335 341 194 207 204 200 208 201 193 188 185 208 320 173 172 140 167
34 150 174 266 260 262 274 281 281 282 278 279 286 295 301 299 306 310 312 315 320 325 327 323 322 329 334 337 345 193 194 205 198 199 190 185 180 42 347 347 1 78 81
359 88 147 142 266 268 277 281 284 290 284 280 284 289 293 303 305 305 315 317 323 326 328 310 313 319 327 333 333 336 337 326 330 126 163 153 358 11 357 358 4 8 19
343 13 72 115 129 274 275 285 292 278 274 281 284 283 283 294 302 302 312 318 327 313 325 322 310 317 332 342 336 335 339 349 347 3 30 42 30 43 358 26 28 36 63
26 34 32 49 45 55 73 294 290 285 292 292 289 291 293 296 302 310 313 336 3 322 326 327 310 319 336 342 343 349 356 1 2 11 14 19 14 17 17 29 30 42 44
100 121 107 88 80 51 15 331 316 302 297 303 298 298 294 293 305 316 313 316 338 330 330 330 320 328 352 359 354 356 0 10 17 17 16 14 16 25 42 38 50 66 67
119 108 100 92 69 62 54 17 335 301 310 297 299 309 294 297 299 310 322 321 326 332 322 328 328 326 1 10 11 359 2 18 22 20 20 12 8 7 5 20 62 72 70
100 99 89 89 85 73 91 70 6 338 326 318 311 305 304 302 294 308 303 317 322 319 319 328 318 313 337 7 10 6 5 15 26 31 13 9 12 7 18 30 46 60 68
88 104 94 97 81 54 50 43 27 9 342 331 321 313 315 298 309 301 306 311 311 320 315 311 301 301 322 356 22 17 14 14 23 26 25 22 25 31 36 42 51 60 60
91 91 84 68 80 81 67 41 35 15 47 12 356 333 319 319 308 298 304 304 302 307 312 313 309 284 313 2 3 15 16 12 11 15 16 20 24 26 26 20 19 29 31
89 98 88 90 91 84 78 71 44 2 32 3 10 354 312 313 312 312 308 301 307 300 302 312 288 268 289 332 13 34 25 18 13 17 22 26 28 29 26 26 27 28 21
94 104 82 81 78 75 69 71 50 26 352 341 347 338 317 307 305 308 306 302 309 309 304 312 285 265 275 301 356 357 42 26 13 13 16 24 26 24 20 18 19 16 14
96 101 100 96 88 66 60 58 57 45 35 357 345 339 332 332 323 320 312 317 336 321 327 19 338 275 267 301 317 346 6 20 27 22 4 359 1 3 4 8 12 13 13
113 117 91 92 83 55 34 45 53 38 42 32 7 356 346 341 333 328 325 341 353 346 328 323 350 275 278 302 302 318 330 359 353 17 23 4 348 340 339 352 359 3 4
120 103 92 74 66 57 51 42 40 26 19 11 33 15 12 351 348 336 328 337 354 348 329 324 326 316 300 300 299 295 303 314 322 341 351 341 333 335 340 342 351 355 0
97 88 77 62 62 67 66 54 51 38 25 13 16 24 26 21 5 352 340 329 324 322 338 336 321 313 306 299 295 294 294 301 312 330 326 324 328 323 328 333 337 333 343
153 110 73 80 67 63 60 62 54 39 47 36 21 14 17 28 25 17 357 350 338 328 333 334 333 330 323 317 291 294 296 304 311 320 316 312 322 317 320 317 307 276 316
249 340 105 58 52 49 44 55 54 52 52 48 26 20 28 25 11 37 352 346 347 341 338 330 328 330 334 336 325 309 302 301 303 304 309 307 313 313 312 306 291 214 223
251 270 8 7 34 40 40 37 50 51 62 56 43 31 27 18 18 355 356 359 348 335 351 350 341 330 337 338 339 327 315 304 306 306 307 305 306 316 312 310 287 294 271